Regional Weather Roundup
Issued by NWS

Home | Current Version | Previous Version | Text Only | Print | Product List | Glossary On
Versions: 1 2 3 4 5 6 7 8 9 10 11 12 13 14 15 16 17 18 19 20 21 22 23 24 25 26 27 28 29 30 31 32 33 34 35 36 37 38 39 40 41 42 43 44 45 46 47 48 49 50
000
ASUS43 KDTX 231301
RWRMI
MICHIGAN HOURLY REGIONAL WEATHER ROUNDUP
NATIONAL WEATHER SERVICE DETROIT/PONTIAC MI
900 AM EDT THU OCT 23 2014

NOTE: "FAIR" INDICATES FEW OR NO CLOUDS BELOW 12,000 FEET WITH NO
SIGNIFICANT WEATHER AND/OR OBSTRUCTION TO VISIBILITY.

MIZ047>049-052>055-059>063-066>070-074>076-081>083-231400-
SOUTHEAST LOWER MICHIGAN

CITY           SKY/WX    TMP DP  RH WIND       PRES   REMARKS
ADRIAN         SUNNY     34  33  96 CALM      30.26S FOG
ALMA           FOG       30  30  99 CALM      30.27R VSB<1/4
ANN ARBOR      SUNNY     32  30  92 W3        30.24S
BAD AXE        FOG       27  27 100 CALM      30.25R VSB 1/4
CARO           CLOUDY    28  27  99 CALM      30.25S FOG
DETROIT CITY   SUNNY     42  36  79 N5        30.24S
DETROIT        SUNNY     38  35  89 NW3       30.25S
FLINT          FOG       31  30  96 CALM      30.25F VSB 1/4
GROSSE ILE     SUNNY     39  37  93 CALM      30.23R
HILLSDALE      FOG       31  31 100 CALM      30.23F VSB<1/4
HOWELL         FOG       30  30 100 CALM      30.24S VSB<1/4

CITY           SKY/WX    TMP DP  RH WIND       PRES   REMARKS
JACKSON        FOG       29  28  96 CALM      30.24S VSB 1/4
LAMBERTVILLE   SUNNY     36  34  93 CALM      30.25S FOG
LANSING        FOG       31  30  96 CALM      30.26R VSB<1/4
LAPEER         CLOUDY    29  29  99 CALM      30.24S FOG
MASON          FOG       29  29  99 CALM      30.25S VSB 1/4
MONROE         SUNNY     36  36 100 W3        30.23R FOG
MT. CLEMENS    SUNNY     39  38  97 NW3       30.21S
PONTIAC        SUNNY     35  33  92 CALM      30.22F
PORT HOPE        N/A     35  33  92 CALM      30.23R
PORT HURON     SUNNY     36  36 100 CALM      30.23F
TRI CITIES     FOG       31  29  92 W3        30.26S VSB 1/4
TROY           SUNNY     41  37  84 N3        30.25R
SAGINAW HB     FOG       32  32 100 CALM      30.25S VSB<1/4
$$
MIZ043>046-050>051-056>058-064>065-071>073-077>080-231400-
SOUTHWEST LOWER MICHIGAN

CITY           SKY/WX    TMP DP  RH WIND       PRES   REMARKS
BATTLE CREEK   FOG       32  30  92 CALM      30.25S VSB 1/4
BENTON HARBOR  PTCLDY    35  35 100 S5        30.24S FOG     WCI  31
BIG RAPIDS     FOG       30  30 100 CALM      30.24R VSB<1/4
COLDWATER      FOG       31  30  98 CALM      30.25R VSB 1/2
FREMONT        FOG       31  31  99 E3        30.23S VSB<1/4
HOLLAND        FOG       34  32  92 CALM      30.25S VSB<1/4
GRAND RAPIDS   FOG       31  29  92 E3        30.25S VSB 1/2
IONIA          FOG       30  30 100 CALM      30.25R VSB 1/4
KALAMAZOO      FOG       34  34 100 VRB3      30.25S VSB<1/4
LUDINGTON      CLOUDY    34  33  97 CALM      30.22S FOG
MARSHALL       FOG       29  29  99 CALM      30.25R VSB<1/4
MOUNT PLEASANT CLOUDY    32  32 100 CALM      30.25R FOG
MUSKEGON       FOG       34  32  92 SE6       30.24S VSB 1   WCI  29
SOUTH HAVEN      N/A     37  37  99 CALM      30.24S FOG
$$
MIZ016>042-231400-
NORTHERN LOWER MICHIGAN

CITY           SKY/WX    TMP DP  RH WIND       PRES   REMARKS
ALPENA         CLEAR     27  26  96 CALM      30.24F
BEAVER ISLAND  PTCLDY    34  33  99 CALM      30.20S FOG
BELLAIRE       CLEAR     28  27  94 CALM      30.25R
CADILLAC       FOG       32  32 100 CALM      30.21S VSB<1/4
CHARLEVOIX     CLEAR     35  35 100 S5        30.25R WCI  31
FRANKFORT      PTCLDY    34  32  92 CALM      30.21S FOG
GAYLORD        FOG       27  27 100 CALM      30.22R VSB 1/4
GRAYLING       FOG       27  27 100 CALM      30.24R VSB<1/4
HARBOR SPRINGS CLEAR     32  31  94 CALM      30.23R FOG
HOUGHTON LAKE  FOG       30  29  96 CALM      30.24R VSB<1/4
OSCODA         CLEAR     29  28  97 CALM      30.24S
PELLSTON       CLOUDY    24  22  91 CALM      30.23S
ROGERS CITY    CLEAR     34  34 100 CALM      30.25S
TRAVERSE CITY  PTCLDY    33  31  92 CALM      30.22S FOG
$$
MIZ007>008-015-231400-
EASTERN UPPER MICHIGAN

CITY           SKY/WX    TMP DP  RH WIND       PRES   REMARKS
KINROSS        MOCLDY    34  34 100 SE6       30.21S VSB 1   WCI  29
MACKINAC ISLAN CLEAR     40  39  95 S6        30.22R
NEWBERRY       CLEAR     35  34  99 S6        30.18S WCI  30
S. S. MARIE    FOG       32  31  96 E3        30.21R VSB<1/4
MUNISING         N/A     40  37  89 S8        30.13F WCI  34
$$
MIZ004>006-011>014-085-231400-
CENTRAL UPPER MICHIGAN

CITY           SKY/WX    TMP DP  RH WIND       PRES   REMARKS
MANISTIQUE     CLOUDY    46  43  87 S9        30.17S
ESCANABA       CLOUDY    28  25  86 CALM      30.15F VSB 1/4
MENOMINEE      CLEAR     32  30  93 CALM      30.15F
SAWYER-GWINN   CLOUDY    36  36 100 S10       30.12S FOG     WCI  28
$$
MIZ001>003-009>011-084-231400-
WESTERN UPPER MICHIGAN

CITY           SKY/WX    TMP DP  RH WIND       PRES   REMARKS
IRON MOUNTAIN  MOCLDY    37  35  92 SE8       30.11F FOG     WCI  31
HOUGHTON       CLOUDY    44  39  82 S7        30.04F
COPPER HARBOR    N/A     46  40  79 SW12G20   30.03F
IRONWOOD       CLOUDY    46  39  76 S5        29.99S
$$

ABBREVIATIONS USED IN REMARKS
   TC - TEMPERATURE IN CELSIUS
  WCI - WIND CHILL INDEX
   HX - HEAT INDEX
  VSB - VISIBILITY




USA.gov is the U.S. government's official web portal to all federal, state and local government web resources and services.